Lid_Strength_Index
14 13 12 13 13 12 13 13 15 14 14 14 13 14 13 12 12 11 10 10 10 11 11 11 10 10 10 10 9 9 8 8 8 9 8 8 9 9 9 9 10 10 10 11
18 14 13 14 12 12 12 12 12 14 13 11 12 11 12 11 11 11 11 10 10 10 11 11 11 10 10 10 10 9 9 9 9 9 10 11 11 12 11 11 12 12 12 12
21 16 15 18 13 12 12 10 11 14 12 11 11 11 11 10 11 11 11 10 10 11 11 11 11 10 10 10 10 10 11 12 11 12 12 12 13 13 14 13 13 13 13 14
18 15 20 15 11 10 11 10 10 10 11 11 10 10 10 10 11 10 10 10 11 11 11 10 10 9 9 10 11 12 12 12 13 13 13 14 14 14 14 14 14 14 14 13
18 18 18 16 15 12 13 13 10 10 10 11 11 11 11 11 10 11 11 11 11 11 10 10 10 10 11 12 12 12 12 13 13 13 15 15 16 16 14 14 15 15 15 14
19 19 21 16 13 10 11 15 10 10 10 10 11 12 11 11 11 12 12 12 11 10 10 11 11 11 12 13 13 13 13 13 13 14 16 17 16 15 15 14 14 15 14 14
17 21 19 15 14 10 17 15 11 10 9 10 10 9 11 11 12 12 12 12 11 11 12 12 12 13 13 14 14 14 14 14 16 16 17 17 17 18 17 15 15 15 15 14
20 25 20 14 12 13 13 14 13 12 9 10 11 12 12 12 13 13 13 13 13 14 14 14 15 14 14 15 15 16 16 16 17 19 17 17 19 19 18 14 14 15 15 15
14 16 14 14 12 11 12 13 13 12 12 11 12 13 12 13 14 14 14 14 14 15 16 16 16 16 16 16 16 17 17 18 19 18 18 18 20 20 19 18 17 15 15 15
15 15 15 13 14 12 12 13 12 12 12 11 12 12 13 14 15 15 16 16 17 17 18 19 19 18 19 18 17 18 18 18 19 19 19 19 18 18 20 20 20 18 18 15
17 15 15 15 13 12 12 11 12 12 12 12 12 13 14 15 16 16 17 18 18 18 19 20 20 20 21 20 20 18 18 19 19 20 21 20 19 19 18 19 18 20 20 19
16 14 13 12 12 12 12 12 12 13 14 14 13 14 15 16 16 17 18 19 19 20 21 22 23 23 24 23 22 20 18 19 19 20 20 20 20 20 14 13 12 12 12 15
15 13 12 13 13 13 13 14 14 14 13 14 15 15 16 17 18 19 20 20 21 22 23 25 25 26 27 26 25 22 20 20 21 20 21 22 22 22 21 18 14 13 13 13
19 16 14 15 14 14 14 15 16 17 16 15 16 17 17 19 20 21 22 23 23 25 27 29 28 28 28 28 26 23 23 22 22 24 24 24 24 24 24 24 24 22 17 14
21 18 16 16 16 17 16 16 17 18 18 19 18 19 19 20 21 22 24 25 26 28 29 29 29 29 30 29 26 25 22 24 25 24 25 24 25 24 24 24 24 24 24 18
23 20 19 19 19 19 18 19 19 20 21 21 21 22 22 22 23 25 27 29 27 29 33 32 30 32 32 30 27 26 26 23 25 26 25 25 24 24 23 23 22 21 22 21
23 21 22 22 21 22 23 21 20 22 22 22 24 24 25 26 27 29 30 31 31 33 35 34 34 33 32 31 30 30 30 29 27 28 28 30 30 29 28 28 28 28 26 24
26 25 24 24 24 25 26 26 25 25 26 26 25 25 25 25 27 29 30 32 32 32 33 33 34 35 34 34 33 32 32 32 32 31 31 29 30 30 30 30 31 30 28 27
28 28 27 27 26 27 27 28 28 27 26 26 26 28 28 29 28 27 28 28 29 30 33 34 26 32 32 29 31 33 32 32 31 32 32 31 32 33 32 32 32 32 31 28
29 29 29 29 29 27 28 27 27 27 25 25 26 27 27 27 27 27 26 29 31 33 35 35 33 32 34 32 29 34 34 33 33 34 34 34 34 34 33 31 31 32 32 30
31 30 29 30 31 30 30 28 27 28 28 26 26 27 28 28 27 27 27 27 30 31 31 31 33 31 32 31 31 33 34 33 33 34 35 35 34 34 33 35 34 32 31 30
32 31 31 30 31 31 31 30 29 28 28 28 28 27 27 28 28 30 31 28 30 29 31 31 32 30 30 29 31 33 34 34 34 34 34 35 35 34 34 33 33 31 30 30
32 32 31 31 31 31 31 31 30 30 30 30 30 30 30 29 29 27 27 30 30 30 30 30 29 26 26 30 30 32 32 33 32 33 34 34 34 34 33 31 30 29 28 28
32 32 31 30 29 29 31 31 30 30 30 30 30 31 30 29 29 29 29 29 29 29 29 29 27 23 26 29 30 30 30 31 30 33 32 29 32 30 30 29 29 28 28 29
32 31 31 31 30 31 31 31 29 30 30 29 29 29 30 30 30 29 30 30 29 28 29 28 24 24 29 31 31 31 30 31 32 32 31 30 30 30 30 30 30 29 29 29
32 32 32 31 31 31 31 31 31 30 30 30 29 29 29 29 29 28 29 28 28 28 28 28 28 28 29 30 31 30 29 28 27 27 28 28 29 28 29 28 28 27 28 27
31 30 31 30 30 30 30 31 31 30 30 31 31 30 29 29 29 28 28 28 28 28 28 28 28 27 27 28 28 28 27 28 26 27 28 27 27 28 27 27 26 25 25 25